Flag Weather past 2 weeks in Kortrijk, Belgium

Now
55 °F

Clear.


Feels Like: 53 °F
Forecast: 50 / 65 °F
Wind: 8 mph from South

Location: Lille Airport

Current Time: Oct 31, 2014 at 12:03:00 AM

Latest Report: Oct 30, 2014 at 11:30 PM


Visibility: 4 mi

Pressure: 30.15 "Hg

Humidity: 94%

Dew point: 54 °F

Location of KortrijkLocation

Historic Weather in Kortrijk — Graph

°F

Kortrijk temperature yesterday

Maximum temperature yesterday: 64 °F (at 2:00 PM)
Minimum temperature yesterday: 50 °F (at 5:00 AM)
Average temperature yesterday: 56 °F

Past Weeks' High & Low Weather Summary

 TemperatureHumidityPressure
High73 °F (Oct 18, 4:00 PM)100% (Oct 16, 6:30 AM)30.24 "Hg (Oct 16, 6:30 AM)
Low45 °F (Oct 22, 4:00 AM)55% (Oct 21, 3:30 PM)29.59 "Hg (Oct 16, 2:30 AM)
Average56 °F86%30.04 "Hg
* Reported Midnight between Oct 15 and Oct 16 — Oct 30 11:00 PM, Kortrijk, Weather by CustomWeather, © 2014

Note: Actual official high and low records may vary slightly from our data, if they occured in-between our weather recording intervals... More about our weather records

Advertising

Kortrijk weather history for previous 24 hours

 ConditionsComfort  
Time TempWeatherWind HumidityBarometerVisibility
11:00 PM
Oct 30
55 °FClear.8 mph94%30.15 "Hg4 mi
10:30 PM55 °FClear.7 mph100%30.15 "Hg4 mi
10:00 PM55 °FClear.7 mph94%30.15 "Hg4 mi
9:30 PM55 °FFog.2 mph94%30.15 "Hg3 mi
9:00 PM55 °FClear.3 mph94%30.18 "Hg4 mi
8:30 PM55 °FClear.5 mph100%30.15 "Hg10 mi
8:00 PM57 °FClear.8 mph94%30.15 "Hg10 mi
7:30 PM57 °FClear.6 mph94%30.15 "Hg10 mi
7:00 PM57 °FClear.5 mph94%30.15 "Hg10 mi
6:30 PM57 °FClear.6 mph94%30.15 "Hg10 mi
6:00 PM59 °FClear.7 mph88%30.15 "Hg10 mi
5:30 PM59 °FClear.6 mph88%30.15 "Hg10 mi
5:00 PM63 °FSunny.6 mph77%30.15 "Hg10 mi
4:30 PM64 °FSunny.8 mph73%30.15 "Hg10 mi
4:00 PM64 °FSunny.10 mph73%30.15 "Hg10 mi
3:30 PM64 °FSunny.8 mph78%30.15 "Hg10 mi
3:00 PM64 °FSunny.10 mph73%30.15 "Hg10 mi
2:30 PM64 °FSunny.10 mph78%30.15 "Hg10 mi
2:00 PM64 °FSunny.8 mph78%30.15 "Hg10 mi
1:30 PM63 °FBroken clouds.6 mph83%30.15 "HgN/A
1:00 PM61 °FSunny.6 mph83%30.15 "Hg10 mi
12:00 PM59 °FSunny.8 mph88%30.15 "Hg10 mi
11:30 AM57 °FClear.7 mph94%30.15 "Hg6 mi
11:00 AM57 °FClear.7 mph94%30.15 "Hg5 mi
10:30 AM55 °FClear.8 mph94%30.15 "Hg4 mi
10:00 AM54 °FFog.7 mph100%30.15 "Hg3 mi
9:30 AM54 °FFog.8 mph100%30.15 "Hg2 mi
9:00 AM54 °FFog.7 mph94%30.15 "Hg2 mi
8:30 AM52 °FFog.7 mph100%30.15 "Hg2 mi
8:00 AM52 °FFog.5 mph100%30.12 "Hg1 mi
7:30 AM52 °FFog.6 mph100%30.12 "Hg1 mi
7:00 AM52 °FFog.7 mph100%30.12 "Hg1 mi
6:30 AM50 °FFog.7 mph100%30.12 "Hg1 mi
6:00 AM50 °FFog.5 mph100%30.12 "Hg1 mi
5:00 AM50 °FFog.3 mph100%30.12 "Hg1 mi
4:30 AM52 °FFog.3 mph100%30.12 "Hg1 mi
4:00 AM52 °FFog.3 mph100%30.12 "Hg1 mi
3:30 AM52 °FFog.3 mph100%30.12 "Hg0 mi
3:00 AM52 °FFog.3 mph100%30.12 "Hg0 mi
2:30 AM52 °FFog.5 mph100%30.12 "Hg0 mi
2:00 AM52 °FFog.5 mph100%30.12 "Hg1 mi
1:30 AM52 °FFog.3 mph100%30.12 "Hg1 mi
1:00 AM52 °FFog.3 mph100%30.12 "Hg1 mi
12:30 AM52 °FFog.2 mph100%30.12 "Hg1 mi
12:00 AM52 °FFog.2 mph100%30.09 "Hg1 mi
Weather by CustomWeather, © 2014

See weather overviewHow to use our weather pages